Location: *
(37.5724°S, 58.0067°E)
Time: 11:31:23
(UTC+00:00)

Lacrosse 5 - Pass Details

Date: 26 September 2020
Orbit: 716 x 723 km, 57.0° (Epoch: 28 October)

Event Time Altitude Azimuth Distance (km) Brightness Sun altitude
Rises 16:18:30 0° 223° (SW) 3,157 6.3 -25.8°
Reaches altitude 10° 16:20:55 10° 224° (SW) 2,229 5.3 -26.3°
Enters shadow 16:25:51 76° 281° (W) 749 1.9 -27.1°
